FENGYUN 1C DEB, 31099

Orbit data source: Space-Track

FENGYUN 1C DEB, 31099 is space debris in SSO originally from a launch on Mon, 10 May 1999 UTC launched from the Taiyaun Space Center, China (TSC). Fengyun 1C debris stems from the Chinese weather satellite Fengyun-1C, which was intentionally destroyed by a Chinese anti-satellite missile in 2007. This event dramatically increased the amount of space debris, with thousands of trackable fragments posing hazards to satellites and human spaceflight. The Fengyun 1C debris cloud has become a focal point in discussions about space sustainability and the need for international regulations to prevent the creation of new debris.

Loading next visibility...
Identifier
31099, 1999-025BGV
Orbit
SSO
Country
Flag of CNCN / PRC
Related business
Manufacturer
Unknown
Mission
Spacecraft
Bus & Motor
Unknown
Mass
Unknown
Launch date (UTC)
1999-05-10 (27 years ago)
Launch vehicle
Unknown
Launch site
Taiyaun Space Center, China (TSC)
Object type
Payload
Rocket body
Debris
Shape & HBR
Unknown shape, 0.1 m
Radar Cross Section
Small (<0.1 m²)

Expand to show TLE details & history
Last TLE update: 9 hours ago

TLE from 9 hours ago
0 FENGYUN 1C DEB
1 31099U 99025BGV 26253.70262146  .00000296  00000-0  13462-3 0  9999
2 31099  98.9123 157.2159 0062292 211.4558 206.2706 14.28243436 13467
Epoch: 2026-09-10T16:51Z
TLE epoch observation values (Epoch: 2026-09-10T16:51:46.494Z)
Latitude
56.44559°
Longitude
-99.06706°
Altitude
847.145 km
Speed
7.414 km/s
True Right ascension
09h 34m 27s
True Declination
56° 17' 20"
Sunlit
Object was in daylight at epoch
Visualization orbit readout
Latitude
Unknown
Longitude
Unknown
Altitude
Unknown
Speed
Unknown
Apparent Right ascension
Unknown
Apparent Declination
Unknown
Sunlit
N/A
Visualization observer readout
Local Sidereal Time
18:40:51
Azimuth
Unknown
Elevation
Unknown
Doppler factor
Unknown
Orbital elements
Apogee altitude
839.447 km
Perigee altitude
750.084 km
Semi-major axis
7,172.903 km
Eccentricity
0.00623
Inclination
98.9123°
RAAN
157.2159°
Arg. of periapsis
211.4558°
True anomaly
205.95685°
Mean anomaly
206.2706°
Eccentric anomaly
206.11351°
Mean motion
3.57273 °/min
Orbital period
100.76 mins
BSTAR
0.00013462
Loading maneuver chart data...
Computing Atmospheric mass density...

Documentation

Showing up to 5 results
|